Plymouth, MA

2:34 PM EDT on April 22, 2018 (GMT -0400)
Plymouth Municipal

Weather History for KPYM - April, 2013

Change the Weather History Date:

Friday, April 12, 2013

  Actual Average Record
Temperature  
Mean Temperature 40 °F -  
Max Temperature 44 °F 52 °F 72 °F (1957)
Min Temperature 37 °F 31 °F 21 °F (1968)
Degree Days  
Heating Degree Days 24    
Moisture  
Dew Point 34 °F    
Average Humidity 81    
Maximum Humidity 93    
Minimum Humidity 58    
Precipitation  
Precipitation 0.58 in - - ()
Sea Level Pressure  
Sea Level Pressure 29.94 in    
Wind  
Wind Speed 11 mph (ENE)    
Max Wind Speed 18 mph    
Max Gust Speed 31 mph    
Visibility 5 miles    
Events Rain    
Averages and records for this station are not official NWS values.
T = Trace of Precipitation, MM = Missing Value Source: NWS Daily Summary

Daily Weather History Graph

Daily Weather History Graph

Search for Another Location

Airport or City:

Astronomy

Apr. 12, 2013 Rise Set
Actual Time 6:07 AM EDT 7:20 PM EDT
Civil Twilight 5:38 AM EDT 7:49 PM EDT
Nautical Twilight 5:03 AM EDT 8:24 PM EDT
Astronomical Twilight 4:27 AM EDT 9:00 PM EDT
Moon 7:12 AM EDT (4/12) 9:51 PM EDT (4/12)
Length of Visible Light 14h 11m
Length of Day
13h 13m
Waxing Crescent, 5% of the Moon is Illuminated
Apr 12
Waxing Crescent
Apr 18
First Quarter
Apr 25
Full
May 2
Last Quarter
May 9
New

Hourly Weather History & Observations

Time (EDT) Temp. Windchill Dew Point Humidity Pressure Visibility Wind Dir Wind Speed Gust Speed Precip Events Conditions
12:52 AM 44.1 °F 41.5 °F 34.0 °F 68% 30.15 in 10.0 mi NE 4.6 mph - N/A   Overcast
1:52 AM 43.0 °F 38.2 °F 35.1 °F 74% 30.13 in 10.0 mi East 8.1 mph - N/A   Overcast
2:52 AM 43.0 °F 39.5 °F 35.1 °F 74% 30.14 in 10.0 mi NE 5.8 mph - N/A   Overcast
3:52 AM 43.0 °F 38.8 °F 33.1 °F 68% 30.15 in 10.0 mi NE 6.9 mph - N/A   Overcast
4:52 AM 42.1 °F 36.1 °F 30.9 °F 65% 30.14 in 10.0 mi ENE 10.4 mph 18.4 mph N/A   Overcast
5:52 AM 42.1 °F 35.7 °F 28.9 °F 60% 30.13 in 10.0 mi ENE 11.5 mph 21.9 mph N/A   Overcast
6:52 AM 42.1 °F 35.2 °F 33.1 °F 70% 30.14 in 10.0 mi East 12.7 mph 20.7 mph N/A   Overcast
7:52 AM 42.1 °F 33.9 °F 28.9 °F 60% 30.15 in 10.0 mi East 17.3 mph 26.5 mph N/A   Overcast
8:52 AM 42.1 °F 35.2 °F 28.9 °F 60% 30.14 in 10.0 mi East 12.7 mph 23.0 mph N/A   Overcast
9:52 AM 43.0 °F 35.4 °F 30.9 °F 62% 30.11 in 10.0 mi ESE 16.1 mph 28.8 mph N/A   Overcast
10:52 AM 42.1 °F 33.9 °F 28.0 °F 58% 30.08 in 10.0 mi East 17.3 mph 28.8 mph N/A   Overcast
11:52 AM 41.0 °F 32.2 °F 30.0 °F 65% 30.04 in 4.0 mi East 18.4 mph 31.1 mph 0.00 in Rain Light Rain
12:47 PM 39.2 °F 31.6 °F 33.8 °F 81% 30.03 in 2.5 mi East 12.7 mph 19.6 mph 0.06 in Rain Light Rain
12:52 PM 39.0 °F 31.8 °F 33.1 °F 79% 30.04 in 3.0 mi East 11.5 mph 19.6 mph 0.07 in Rain Light Rain
1:17 PM 39.2 °F 32.0 °F 33.8 °F 81% 30.01 in 3.0 mi ESE 11.5 mph - 0.04 in Rain Rain
1:37 PM 39.2 °F 32.0 °F 33.8 °F 81% 30.00 in 2.5 mi East 11.5 mph - 0.08 in Rain Light Rain
1:41 PM 39.2 °F 32.5 °F 33.8 °F 81% 30.00 in 3.0 mi East 10.4 mph - 0.08 in Rain Light Rain
1:52 PM 39.0 °F 31.8 °F 34.0 °F 82% 30.01 in 4.0 mi East 11.5 mph 23.0 mph 0.09 in Rain Light Rain
2:15 PM 39.2 °F 31.2 °F 33.8 °F 81% 30.00 in 3.0 mi ESE 13.8 mph 23.0 mph 0.02 in Rain Light Rain
2:34 PM 37.4 °F 29.8 °F 33.8 °F 87% 29.99 in 2.0 mi East 11.5 mph 19.6 mph 0.03 in Rain Light Rain
2:45 PM 37.4 °F 28.2 °F 33.8 °F 87% 29.99 in 2.5 mi East 16.1 mph 25.3 mph 0.04 in Rain Light Rain
2:52 PM 37.9 °F 29.6 °F 34.0 °F 86% 29.98 in 2.5 mi East 13.8 mph 25.3 mph 0.04 in Rain Light Rain
2:56 PM 37.4 °F 28.5 °F 33.8 °F 87% 29.97 in 2.5 mi East 15.0 mph 23.0 mph 0.01 in Rain Light Rain
3:14 PM 37.4 °F 29.3 °F 33.8 °F 87% 29.95 in 3.0 mi East 12.7 mph 23.0 mph 0.03 in Rain Light Rain
3:52 PM 39.0 °F 30.3 °F 34.0 °F 82% 29.91 in 6.0 mi East 16.1 mph 26.5 mph 0.05 in Rain Light Rain
4:52 PM 39.0 °F 31.8 °F 35.1 °F 86% 29.87 in 3.0 mi East 11.5 mph 24.2 mph 0.03 in Rain Light Rain
4:59 PM 39.2 °F 32.5 °F 35.6 °F 87% 29.87 in 2.5 mi East 10.4 mph 19.6 mph 0.01 in Rain Rain
5:13 PM 39.2 °F 32.0 °F 35.6 °F 87% 29.87 in 3.0 mi East 11.5 mph 20.7 mph 0.04 in Rain Light Rain
5:21 PM 39.2 °F 33.0 °F 35.6 °F 87% 29.86 in 3.0 mi East 9.2 mph - 0.04 in Rain Light Rain
5:24 PM 39.2 °F 31.6 °F 35.6 °F 87% 29.86 in 2.5 mi East 12.7 mph - 0.04 in Rain Light Rain
5:26 PM 39.2 °F 32.5 °F 35.6 °F 87% 29.86 in 3.0 mi ENE 10.4 mph - 0.04 in Rain Light Rain
5:52 PM 39.9 °F 32.9 °F 36.0 °F 86% 29.85 in 6.0 mi ENE 11.5 mph 18.4 mph 0.05 in Rain Light Rain
6:35 PM 39.2 °F 30.2 °F 35.6 °F 87% 29.82 in 2.5 mi ENE 17.3 mph 26.5 mph 0.04 in Rain Rain
6:48 PM 39.2 °F 30.5 °F 35.6 °F 87% 29.80 in 3.0 mi ENE 16.1 mph 25.3 mph 0.10 in Rain Rain
6:52 PM 39.9 °F 31.8 °F 36.0 °F 86% 29.80 in 2.5 mi ENE 15.0 mph 25.3 mph 0.12 in Rain Heavy Rain
7:26 PM 39.2 °F 30.8 °F 37.4 °F 93% 29.78 in 4.0 mi ENE 15.0 mph 19.6 mph 0.09 in Rain Light Rain
7:41 PM 39.2 °F 32.0 °F 37.4 °F 93% 29.78 in 5.0 mi NE 11.5 mph - 0.11 in Rain Light Rain
7:52 PM 39.9 °F 32.1 °F 37.0 °F 89% 29.78 in 9.0 mi NE 13.8 mph 20.7 mph 0.11 in Rain Light Rain
8:52 PM 41.0 °F 32.8 °F 37.9 °F 89% 29.76 in 6.0 mi NE 16.1 mph 25.3 mph 0.01 in   Overcast
9:15 PM 41.0 °F 32.8 °F 37.4 °F 87% 29.76 in 2.5 mi NNE 16.1 mph - 0.00 in Rain Light Rain
9:52 PM 41.0 °F 32.8 °F 37.0 °F 86% 29.76 in 2.0 mi NNE 16.1 mph 27.6 mph 0.00 in Rain Light Rain
10:19 PM 41.0 °F 33.1 °F 37.4 °F 87% 29.75 in 1.8 mi NNE 15.0 mph 24.2 mph 0.00 in Rain Light Rain
10:40 PM 39.2 °F 30.5 °F 37.4 °F 93% 29.74 in 2.0 mi NNE 16.1 mph 29.9 mph 0.00 in Rain Light Rain
10:52 PM 39.9 °F 30.8 °F 37.0 °F 89% 29.74 in 2.5 mi NNE 18.4 mph 25.3 mph 0.00 in Rain Light Rain
11:36 PM 39.2 °F 29.8 °F 37.4 °F 93% 29.73 in 3.0 mi NNE 18.4 mph 25.3 mph 0.01 in   Overcast
11:52 PM 39.9 °F 31.4 °F 37.0 °F 89% 29.73 in 3.0 mi NNE 16.1 mph 24.2 mph 0.01 in   Overcast